[[{"header":{"parameterUnit":"m.s-1","parameterCategory":1,"la1":30.2991,"la2":30.254,"lo1":-89.0895,"lo2":-89.0444,"dy":0.0017,"dx":0.0017,"nx":28,"ny":28,"refTime":"2025-08-09T03:00:00:Z","depth":0,"parameterNumber":2,"parameterNumberName":"U-component_of_WINDS"},"data":[0,0,0,0,0,0,0,0,0,0,0,0,0,0,0,0,0,0,0,0,0,0,0,0,0,0,0,0,0,0,0,0,0,0,0,0,0,0,0,0,0,0,0,0,0,0,0,0,0,0,0,0,0,0,0,0,0,0,-4.5633,-4.5634,0,-4.5699,-4.5699,-4.57,-4.556,-4.5556,-4.5551,-4.5547,-4.5616,-4.5622,-4.5628,0,0,0,0,0,0,0,0,0,0,0,0,0,-4.5388,-4.5393,-4.5633,-4.5634,-4.5635,-4.5699,-4.5699,-4.57,-4.5561,-4.5555,-4.555,-4.5545,-4.5614,-4.5621,-4.5628,0,0,0,0,0,0,0,0,0,0,0,0,0,-4.5478,-4.5395,-4.5633,-4.5573,-4.5568,-4.5698,-4.5699,-4.5701,-4.5562,-4.5555,-4.5548,-4.5542,-4.5611,-4.562,-4.5629,-4.5821,0,0,-4.5657,-4.5661,0,0,0,0,0,0,0,0,-4.5473,-4.5487,-4.5581,-4.5577,-4.5572,-4.5614,-4.5638,-4.5741,-4.5564,-4.5565,-4.5547,-4.5539,-4.5621,-4.5629,-4.5656,-4.5825,-4.5827,-4.5658,-4.5663,-4.5667,-4.567,0,0,0,0,0,0,0,-4.5467,-4.5484,-4.5659,-4.5583,-4.5577,-4.5543,-4.5548,-4.5657,-4.563,-4.5564,-4.5554,-4.5563,-4.5617,-4.5648,-4.5657,-4.5829,-4.5657,-4.5665,-4.5671,-4.5675,-4.6157,-4.6164,0,0,0,0,0,0,-4.5468,-4.548,-4.5657,-4.5661,-4.5505,-4.5553,-4.5559,-4.5608,-4.5628,-4.5625,-4.5569,-4.5557,-4.5635,-4.5646,-4.5658,-4.5884,-4.5667,-4.5676,-4.5681,-4.6149,-4.6158,-4.6166,0,0,0,0,0,0,-4.5464,-4.5486,-4.5654,-4.5568,-4.5586,-4.5564,-4.562,-4.5613,-4.5643,-4.5632,-4.5627,-4.5605,-4.563,-4.5646,-4.5781,-4.5885,-4.568,-4.5688,-4.6141,-4.6152,-4.6162,-4.6338,0,0,0,0,0,0,-4.5457,-4.5485,-4.5558,-4.557,-4.5592,-4.5777,-4.5627,-4.5619,-4.5659,-4.5643,-4.5665,-4.5662,-4.5626,-4.5769,-4.5791,-4.5893,-4.5695,-4.6131,-4.6146,-4.6159,-4.6323,-4.6354,-4.638,0,0,0,0,0,-4.5449,-4.5605,-4.5562,-4.5584,-4.5682,-4.5783,-4.5795,-4.5751,-4.5668,-4.5741,-4.5734,-4.5661,-4.587,-4.5784,-4.5807,-4.5915,-4.6125,-4.6142,-4.6158,-4.631,-4.6348,-4.638,0,0,0,0,0,0,-4.5606,-4.5606,-4.5558,-4.5723,-4.5754,-4.5759,-4.585,-4.5792,-4.5848,-4.5831,-4.5773,-4.5779,-4.5926,-4.5934,-4.5838,-4.6101,-4.5983,-4.6005,-4.6091,-4.6127,-4.6155,-4.615,-4.5703,0,0,0,0,0,-4.566,-4.5742,-4.5737,-4.5883,-4.5901,-4.5873,-4.5915,-4.5878,-4.5908,-4.5921,-4.5924,-4.5956,-4.6028,-4.6078,-4.6144,-4.6323,-4.6326,-4.6408,-4.6437,-4.646,-4.648,-4.6575,-4.6611,-4.6221,-4.6221,-4.622,0,0,-4.5772,-4.5782,-4.5837,-4.5915,-4.5934,-4.602,-4.5885,-4.5982,-4.6045,-4.5936,-4.6064,-4.6067,-4.6099,-4.6258,-4.6327,-4.6268,-4.6588,-4.6481,-4.65,-4.6507,-4.6595,-4.6632,-4.6665,-4.6232,-4.623,-4.6228,0,0,-4.6021,-4.6037,-4.6159,-4.6181,-4.6212,-4.6193,-4.6222,-4.6236,-4.6234,-4.6362,-4.6281,-4.6355,-4.6481,-4.6507,-4.6537,-4.6794,-4.6729,-4.6817,-4.6967,-4.706,-4.709,-4.7117,-4.7209,-4.7242,-4.6837,-4.6837,-4.6838,0,-4.6157,-4.6282,-4.623,-4.6332,-4.6368,-4.6272,-4.6396,-4.642,-4.6472,-4.6499,-4.6432,-4.6587,-4.6602,-4.6765,-4.6827,-4.6855,-4.6887,-4.6815,-4.709,-4.7117,-4.7141,-4.7227,-4.7262,-4.6848,-4.6847,-4.6846,-4.6845,0,-4.6448,-4.6536,-4.6632,-4.6683,-4.673,-4.6843,-4.6807,-4.6861,-4.6819,-4.6807,-4.6937,-4.6952,-4.7019,-4.7054,-4.7015,-4.7211,-4.7173,-4.7099,-4.698,-4.719,-4.727,-4.7303,-4.6863,-4.6859,-4.6856,-4.6853,0,0,-4.6798,-4.6818,-4.6854,-4.6876,-4.6902,-4.697,-4.7078,-4.7142,-4.7189,-4.7228,-4.7317,-4.7425,-4.7356,-4.739,-4.7353,-4.7434,-4.7636,-4.7349,-4.7349,-4.7402,-4.7853,-4.7909,-4.7948,-4.7593,-4.7599,-4.7604,-4.785,0,-4.7044,-4.7229,-4.7185,-4.7368,-4.7449,-4.7358,-4.7451,-4.7478,-4.7469,-4.7536,-4.7526,-4.7603,-4.7507,-4.7526,-4.7603,-4.7596,-4.7726,-4.7577,-4.7676,-4.768,-4.7671,-4.799,-4.805,-4.8282,-4.7881,-4.7887,-4.789,0,-4.7356,-4.7405,-4.7597,-4.7609,-4.7641,-4.7726,-4.7781,-4.7847,-4.7875,-4.7862,-4.79,-4.7846,-4.7952,-4.7831,-4.7977,-4.7877,-4.7914,-4.7917,-4.7925,-4.7933,-4.7798,-4.8007,-4.8355,-4.839,-4.7939,-4.7935,-4.7932,0,-4.7592,-4.7707,-4.7836,-4.7857,-4.7875,-4.7937,-4.7947,-4.7968,-4.8009,-4.8057,-4.8083,-4.8144,-4.8177,-4.8225,-4.8189,-4.8104,-4.8341,-4.8217,-4.8334,-4.8335,-4.8388,-4.8386,-4.8747,-4.8413,-4.8412,-4.8411,-4.8411,0,-4.7872,-4.7993,-4.7942,-4.8022,-4.8154,-4.8101,-4.8234,-4.8233,-4.8252,-4.833,-4.8255,-4.833,-4.8277,-4.8347,-4.8319,-4.8444,-4.846,-4.8453,-4.8444,-4.846,-4.8461,-4.8484,-4.8467,-4.8421,-4.8419,-4.8417,-4.8415,0,-4.8159,-4.813,-4.8264,-4.8269,-4.8273,-4.8371,-4.8375,-4.8449,-4.8433,-4.8532,-4.8553,-4.8529,-4.8608,-4.8576,-4.8659,-4.864,-4.88,-4.877,-4.8791,-4.8784,-4.8902,-4.8892,-4.9292,-4.9341,-4.8975,-4.8978,-4.8981,0,-4.8339,-4.843,-4.8444,-4.849,-4.8506,-4.8581,-4.8623,-4.8574,-4.862,-4.8658,-4.8727,-4.8799,-4.8854,-4.8984,-4.8974,-4.9037,-4.9008,-4.9144,-4.9018,-4.903,-4.901,-4.9006,-4.9014,-4.917,-4.9174,-4.9178,-4.918,0,-4.8662,-4.8643,-4.8705,-4.8763,-4.8814,-4.8858,-4.8894,-4.8936,-4.8889,-4.8945,-4.9024,-4.9067,-4.9151,-4.9223,-4.9279,-4.9289,-4.9228,-4.922,-4.925,-4.9268,-4.9276,-4.9273,-4.8861,-4.9212,-4.9208,-4.9206,-4.9204,-4.9203,-4.8901,-4.8977,-4.8999,-4.907,-4.9092,-4.9128,-4.9197,-4.919,-4.9255,-4.9319,-4.9286,-4.9378,-4.9403,-4.9471,-4.949,-4.9561,-4.9508,-4.9552,-4.9563,-4.9575,-4.959,-4.9265,-4.9571,-4.957,-4.9569,-4.9568,-4.9568,0,-4.922,-4.9229,-4.9296,-4.9349,-4.9405,-4.9341,-4.9378,-4.9429,-4.9511,-4.9538,-4.9593,-4.9684,-4.9753,-4.9749,-4.9813,-4.987,-4.9844,-4.9889,-4.9884,-4.9888,-4.9634,-4.9602,-4.9909,-4.9909,-4.9909,-4.9909,-4.9909,-4.9909,-4.9393,-4.9517,-4.9501,-4.9635,-4.9643,-4.9732,-4.9759,-4.9791,-4.9813,-4.9917,-4.9974,-4.997,-4.9985,-5.0049,-5.0109,-5.0106,-5.0133,-5.0189,-5.0176,-4.9939,-4.9906,-4.9873,-4.9842,-5.0195,-5.0196,-5.0423,-5.0425,-5.0427]},{"header":{"parameterUnit":"m.s-1","parameterCategory":1,"la1":30.2991,"la2":30.254,"lo1":-89.0895,"lo2":-89.0444,"dy":0.0017,"dx":0.0017,"nx":28,"ny":28,"refTime":"2025-08-09T03:00:00:Z","depth":0,"parameterNumber":3,"parameterNumberName":"V-component_of_WINDS"},"data":[0,0,0,0,0,0,0,0,0,0,0,0,0,0,0,0,0,0,0,0,0,0,0,0,0,0,0,0,0,0,0,0,0,0,0,0,0,0,0,0,0,0,0,0,0,0,0,0,0,0,0,0,0,0,0,0,0,0,-3.2571,-3.2571,0,-3.2599,-3.2599,-3.2599,-3.2565,-3.2564,-3.2562,-3.2561,-3.2589,-3.259,-3.2592,0,0,0,0,0,0,0,0,0,0,0,0,0,-3.2484,-3.2486,-3.257,-3.2571,-3.2571,-3.2599,-3.2599,-3.2599,-3.2565,-3.2564,-3.2562,-3.2561,-3.2588,-3.259,-3.2593,0,0,0,0,0,0,0,0,0,0,0,0,0,-3.2518,-3.2486,-3.257,-3.2557,-3.2557,-3.2599,-3.2599,-3.26,-3.2565,-3.2563,-3.2562,-3.256,-3.2587,-3.259,-3.2593,-3.2649,0,0,-3.2602,-3.2603,0,0,0,0,0,0,0,0,-3.2516,-3.2521,-3.2559,-3.2558,-3.2557,-3.2576,-3.2579,-3.2616,-3.2566,-3.2562,-3.2561,-3.2559,-3.2586,-3.2589,-3.2598,-3.265,-3.2651,-3.2602,-3.2604,-3.2605,-3.2606,0,0,0,0,0,0,0,-3.2514,-3.252,-3.2582,-3.256,-3.2559,-3.2549,-3.2552,-3.2586,-3.2584,-3.2562,-3.256,-3.2564,-3.2585,-3.2596,-3.2599,-3.2652,-3.2602,-3.2604,-3.2606,-3.2607,-3.2748,-3.275,0,0,0,0,0,0,-3.2513,-3.2518,-3.2581,-3.2582,-3.2532,-3.2552,-3.2555,-3.2572,-3.2584,-3.2584,-3.2565,-3.2562,-3.2592,-3.2595,-3.2599,-3.2664,-3.2605,-3.2607,-3.2609,-3.2746,-3.2748,-3.2751,0,0,0,0,0,0,-3.2511,-3.2519,-3.258,-3.255,-3.2557,-3.2556,-3.2575,-3.2574,-3.2584,-3.2586,-3.2585,-3.2576,-3.259,-3.2595,-3.2636,-3.2664,-3.2609,-3.2611,-3.2744,-3.2747,-3.2749,-3.2794,0,0,0,0,0,0,-3.2509,-3.2519,-3.2541,-3.255,-3.2558,-3.2617,-3.2577,-3.2576,-3.2589,-3.2585,-3.2596,-3.2596,-3.2589,-3.2632,-3.2639,-3.2667,-3.2614,-3.2741,-3.2745,-3.2749,-3.279,-3.2798,-3.2805,0,0,0,0,0,-3.2506,-3.2552,-3.2542,-3.255,-3.2586,-3.2619,-3.2623,-3.2614,-3.2592,-3.2613,-3.2614,-3.2596,-3.266,-3.2637,-3.2644,-3.2674,-3.2739,-3.2744,-3.2748,-3.2787,-3.2797,-3.2805,0,0,0,0,0,0,-3.2546,-3.2553,-3.2542,-3.2593,-3.2605,-3.2613,-3.264,-3.2625,-3.2644,-3.264,-3.2627,-3.263,-3.2673,-3.2678,-3.2651,-3.2727,-3.2696,-3.2702,-3.2723,-3.2732,-3.274,-3.2737,-3.2616,0,0,0,0,0,-3.2561,-3.2587,-3.2592,-3.2637,-3.2643,-3.2641,-3.2654,-3.2647,-3.2659,-3.2664,-3.2668,-3.268,-3.2702,-3.2718,-3.2739,-3.2791,-3.2792,-3.2815,-3.2822,-3.2829,-3.2834,-3.286,-3.2869,-3.2765,-3.2765,-3.2765,0,0,-3.2592,-3.2599,-3.2616,-3.2645,-3.2653,-3.268,-3.2645,-3.2675,-3.2695,-3.2668,-3.2707,-3.271,-3.2722,-3.2769,-3.2789,-3.2773,-3.2863,-3.2834,-3.2839,-3.2841,-3.2865,-3.2875,-3.2884,-3.2769,-3.2768,-3.2768,0,0,-3.2661,-3.267,-3.2707,-3.2716,-3.2729,-3.2727,-3.2736,-3.2745,-3.2746,-3.2785,-3.2765,-3.2787,-3.2827,-3.2836,-3.2846,-3.2917,-3.29,-3.2924,-3.2964,-3.2989,-3.2997,-3.3004,-3.3028,-3.3036,-3.293,-3.293,-3.293,0,-3.2697,-3.2737,-3.2727,-3.2758,-3.2771,-3.2748,-3.2784,-3.2794,-3.2813,-3.2822,-3.2804,-3.2852,-3.286,-3.2906,-3.2924,-3.2933,-3.2941,-3.2922,-3.2997,-3.3004,-3.301,-3.3032,-3.3042,-3.2932,-3.2932,-3.2932,-3.2932,0,-3.278,-3.2808,-3.2836,-3.2855,-3.2871,-3.2904,-3.2898,-3.2915,-3.2906,-3.2905,-3.2943,-3.295,-3.2972,-3.2983,-3.2974,-3.3028,-3.3017,-3.2999,-3.2967,-3.3023,-3.3044,-3.3052,-3.2936,-3.2935,-3.2935,-3.2934,0,0,-3.2875,-3.2888,-3.2898,-3.2905,-3.2918,-3.2939,-3.2971,-3.2992,-3.3006,-3.302,-3.3045,-3.3079,-3.3061,-3.3072,-3.3064,-3.3086,-3.314,-3.3064,-3.3064,-3.3077,-3.3197,-3.3211,-3.3221,-3.3129,-3.3131,-3.3132,-3.3196,0,-3.2943,-3.2998,-3.299,-3.3043,-3.3067,-3.3046,-3.3073,-3.3083,-3.3083,-3.3103,-3.3102,-3.3126,-3.3101,-3.3108,-3.3129,-3.3129,-3.3164,-3.3124,-3.3151,-3.3152,-3.3147,-3.3232,-3.3246,-3.3306,-3.3204,-3.3205,-3.3206,0,-3.303,-3.3046,-3.3102,-3.3109,-3.3119,-3.3144,-3.3161,-3.3181,-3.3192,-3.3189,-3.3202,-3.3189,-3.3219,-3.3188,-3.3229,-3.3202,-3.3213,-3.3214,-3.3216,-3.3217,-3.3182,-3.3234,-3.3325,-3.3333,-3.3219,-3.3218,-3.3217,0,-3.3091,-3.3128,-3.3165,-3.3172,-3.3182,-3.32,-3.3204,-3.3213,-3.3225,-3.3241,-3.3248,-3.3267,-3.3277,-3.3291,-3.3283,-3.3262,-3.3325,-3.3293,-3.3323,-3.3323,-3.3336,-3.3335,-3.3429,-3.3346,-3.3346,-3.3346,-3.3345,0,-3.3167,-3.3201,-3.3192,-3.3215,-3.3253,-3.3242,-3.3279,-3.3281,-3.3288,-3.331,-3.3293,-3.3314,-3.3303,-3.3323,-3.3317,-3.3351,-3.3356,-3.3354,-3.3352,-3.3355,-3.3355,-3.336,-3.3355,-3.3348,-3.3347,-3.3347,-3.3347,0,-3.3242,-3.3237,-3.3276,-3.3282,-3.3284,-3.3311,-3.3315,-3.3336,-3.3334,-3.3362,-3.3368,-3.3365,-3.3387,-3.3381,-3.3405,-3.3401,-3.3443,-3.3436,-3.3439,-3.3437,-3.3466,-3.3463,-3.3566,-3.3578,-3.3489,-3.3489,-3.349,0,-3.329,-3.3315,-3.3323,-3.3337,-3.3343,-3.3365,-3.3377,-3.3367,-3.3381,-3.3394,-3.3413,-3.3433,-3.3449,-3.3485,-3.3485,-3.3503,-3.3495,-3.353,-3.3498,-3.3499,-3.3494,-3.3492,-3.3493,-3.3536,-3.3537,-3.3538,-3.3539,0,-3.3374,-3.3371,-3.3389,-3.3407,-3.3422,-3.3436,-3.3448,-3.346,-3.345,-3.3466,-3.3489,-3.3501,-3.3525,-3.3545,-3.3561,-3.3565,-3.355,-3.3549,-3.3556,-3.3559,-3.3559,-3.3558,-3.3455,-3.3546,-3.3546,-3.3545,-3.3545,-3.3544,-3.3436,-3.3457,-3.3465,-3.3486,-3.3494,-3.3505,-3.3524,-3.3524,-3.3543,-3.3562,-3.3555,-3.358,-3.3588,-3.3608,-3.3614,-3.3633,-3.362,-3.3631,-3.3634,-3.3636,-3.3639,-3.3557,-3.3636,-3.3636,-3.3636,-3.3636,-3.3635,0,-3.3518,-3.3522,-3.3542,-3.3558,-3.3574,-3.3559,-3.3571,-3.3585,-3.3608,-3.3617,-3.3632,-3.3657,-3.3676,-3.3677,-3.3694,-3.3709,-3.3703,-3.3714,-3.3712,-3.3713,-3.3651,-3.3642,-3.3719,-3.3719,-3.3719,-3.3719,-3.3719,-3.3719,-3.3563,-3.3597,-3.3594,-3.3631,-3.3635,-3.3659,-3.3667,-3.3677,-3.3684,-3.3712,-3.3728,-3.3728,-3.3733,-3.3751,-3.3767,-3.3767,-3.3773,-3.3787,-3.3784,-3.3726,-3.3717,-3.3709,-3.3701,-3.3789,-3.3789,-3.3844,-3.3844,-3.3845]}]]